TimeCET,TemperatureF,Dew PointF,Humidity,Sea Level PressureIn,VisibilityMPH,Wind Direction,Wind SpeedMPH,Gust SpeedMPH,PrecipitationIn,Events,Conditions,WindDirDegrees,DateUTC
6:00 AM,42.8,42.8,100,29.83,5.6,WSW,5.8,-,N/A,,Mostly Cloudy,240,2012-11-10 05:00:00
6:30 AM,42.8,42.8,100,29.83,4.3,SW,6.9,-,N/A,,Mostly Cloudy,220,2012-11-10 05:30:00
7:00 AM,42.8,42.8,100,29.83,0.9,SW,10.4,-,N/A,Fog,Patches of Fog,220,2012-11-10 06:00:00
7:30 AM,42.8,42.8,100,29.83,0.9,SW,8.1,-,N/A,Fog,Patches of Fog,220,2012-11-10 06:30:00
8:00 AM,42.8,42.8,100,29.83,2.5,SW,8.1,-,N/A,Fog,Patches of Fog,220,2012-11-10 07:00:00
8:30 AM,42.8,42.8,100,29.83,4.3,SW,8.1,-,N/A,,Mostly Cloudy,220,2012-11-10 07:30:00
9:00 AM,44.6,44.6,100,29.83,4.3,WSW,10.4,-,N/A,,Mostly Cloudy,240,2012-11-10 08:00:00
9:30 AM,44.6,44.6,100,29.83,5.6,SW,10.4,-,N/A,,Mostly Cloudy,230,2012-11-10 08:30:00
10:00 AM,46.4,46.4,100,29.83,6.2,SW,12.7,-,N/A,,Mostly Cloudy,230,2012-11-10 09:00:00
10:29 AM,46.4,46.4,100,29.83,6.2,WSW,16.1,-,N/A,Rain,Rain,240,2012-11-10 09:29:00
10:30 AM,46.4,46.4,100,29.83,6.2,WSW,16.1,-,N/A,,Scattered Clouds,240,2012-11-10 09:30:00
11:00 AM,46.4,46.4,100,29.83,5.0,WSW,15.0,-,N/A,Rain,Rain,240,2012-11-10 10:00:00
11:30 AM,46.4,46.4,100,29.83,3.7,WSW,13.8,-,N/A,Rain,Rain,240,2012-11-10 10:30:00
12:00 PM,46.4,46.4,100,29.83,6.2,WSW,12.7,-,N/A,,Light Drizzle,240,2012-11-10 11:00:00
12:30 PM,46.4,46.4,100,29.83,6.2,WSW,13.8,-,N/A,,Overcast,240,2012-11-10 11:30:00
1:00 PM,46.4,46.4,100,29.80,5.0,WSW,15.0,-,N/A,,Light Drizzle,240,2012-11-10 12:00:00
1:30 PM,46.4,46.4,100,29.80,6.2,WSW,12.7,-,N/A,Rain,Heavy Rain,250,2012-11-10 12:30:00
2:00 PM,48.2,48.2,100,29.80,6.2,WSW,16.1,-,N/A,,Mostly Cloudy,250,2012-11-10 13:00:00
2:30 PM,48.2,48.2,100,29.77,6.2,West,15.0,-,N/A,,Mostly Cloudy,260,2012-11-10 13:30:00
3:00 PM,50.0,50.0,100,29.77,6.2,West,16.1,-,N/A,,Mostly Cloudy,260,2012-11-10 14:00:00
3:30 PM,48.2,48.2,100,29.77,6.2,WSW,15.0,-,N/A,,Mostly Cloudy,250,2012-11-10 14:30:00
4:00 PM,48.2,48.2,100,29.77,6.2,West,17.3,-,N/A,,Mostly Cloudy,260,2012-11-10 15:00:00
4:30 PM,50.0,48.2,94,29.77,6.2,West,13.8,-,N/A,,Mostly Cloudy,260,2012-11-10 15:30:00
5:00 PM,50.0,48.2,94,29.77,6.2,West,15.0,-,N/A,,Mostly Cloudy,260,2012-11-10 16:00:00
5:30 PM,48.2,44.6,87,29.77,6.2,West,15.0,-,N/A,,Scattered Clouds,270,2012-11-10 16:30:00
6:00 PM,46.4,44.6,93,29.77,6.2,NW,15.0,-,N/A,,Scattered Clouds,320,2012-11-10 17:00:00
6:30 PM,44.6,42.8,93,29.77,6.2,NW,8.1,-,N/A,,Scattered Clouds,310,2012-11-10 17:30:00
7:00 PM,42.8,42.8,100,29.80,6.2,West,4.6,-,N/A,,Scattered Clouds,270,2012-11-10 18:00:00
7:30 PM,42.8,42.8,100,29.80,6.2,WSW,5.8,-,N/A,,Mostly Cloudy,240,2012-11-10 18:30:00
8:00 PM,42.8,41.0,93,29.80,6.2,West,4.6,-,N/A,,Mostly Cloudy,260,2012-11-10 19:00:00
8:30 PM,42.8,42.8,100,29.80,6.2,West,3.5,-,N/A,,Mostly Cloudy,270,2012-11-10 19:30:00
9:00 PM,41.0,41.0,100,29.80,6.2,WNW,3.5,-,N/A,,Scattered Clouds,300,2012-11-10 20:00:00
9:30 PM,41.0,41.0,100,29.80,6.2,WNW,8.1,-,N/A,,Scattered Clouds,300,2012-11-10 20:30:00
10:00 PM,41.0,39.2,93,29.80,6.2,WNW,6.9,-,N/A,,Scattered Clouds,290,2012-11-10 21:00:00
10:30 PM,41.0,39.2,93,29.83,6.2,West,8.1,-,N/A,,Partly Cloudy,270,2012-11-10 21:30:00